Temp
89 87 86 85 86 88 88 88 89 88 87 87 86 86 83 81 77 76 76 78 81 86 91 86 85 88 87 86 89 87 87 86 84 88 87 88 87 76 71 71 71 71 71 71 70 71 71 71 71 72 72 72 72 72 73 72 73 73 73 73 74 74 73 72 73 73 73 73 72 73 73 73 74 75
87 87 87 86 87 87 87 87 89 87 85 86 86 85 85 84 79 78 76 78 83 83 87 91 85 84 86 88 87 88 88 79 83 87 88 87 89 70 72 71 71 71 70 69 69 69 70 70 70 69 69 69 70 71 71 71 71 72 72 72 73 73 73 72 72 72 72 72 72 72 72 73 73 73
86 85 86 85 86 86 87 87 88 87 85 85 86 85 85 84 82 80 79 75 82 86 83 87 92 87 86 90 88 88 88 83 84 87 87 88 75 72 77 70 71 70 69 68 68 68 67 67 67 67 68 68 69 70 70 71 71 71 71 71 72 72 72 72 71 72 72 72 72 71 72 72 72 72
86 85 84 84 84 86 86 86 87 86 85 86 86 85 85 83 83 82 80 77 78 85 86 87 87 89 87 87 86 86 88 84 79 86 86 85 75 83 85 73 71 70 69 69 68 67 66 66 67 68 68 68 69 70 70 70 70 69 70 70 70 71 71 70 70 71 71 71 71 71 71 71 71 71
86 84 84 84 84 85 84 85 86 87 85 85 85 85 85 84 84 82 80 78 78 83 87 87 88 89 88 86 85 85 86 85 84 82 86 86 85 86 87 86 73 71 68 68 67 66 66 66 67 67 68 68 68 69 70 69 68 68 68 67 67 68 68 68 68 69 69 70 70 70 70 70 70 70
86 84 83 84 85 85 84 85 85 86 86 85 85 85 85 84 84 83 81 80 79 78 83 83 86 87 87 84 86 84 85 86 85 84 84 86 86 86 87 88 84 69 70 67 65 65 65 66 66 66 67 67 67 68 68 67 65 65 65 65 65 65 65 65 66 67 68 68 68 69 69 69 69 69
85 84 83 85 85 86 84 84 85 86 85 86 84 84 85 84 84 84 83 81 79 79 81 84 83 83 85 84 84 85 85 85 86 83 84 85 86 86 87 87 89 70 70 66 66 65 65 66 66 66 66 66 66 66 64 63 63 63 62 62 64 64 64 64 64 66 66 67 67 68 68 68 68 69
85 85 84 85 86 85 83 83 84 85 85 84 84 84 84 83 83 84 83 82 80 81 79 82 82 85 83 83 85 86 85 86 85 85 85 85 85 87 87 86 87 74 67 66 66 65 65 65 65 63 63 64 63 62 61 61 63 63 62 62 62 62 62 62 63 64 64 64 65 66 67 67 67 66
85 85 85 86 86 85 83 83 84 85 84 84 84 83 83 83 84 84 84 82 81 80 79 81 82 83 83 84 84 85 84 83 83 84 83 84 84 84 87 89 88 73 65 68 66 66 66 66 64 64 64 64 63 63 62 62 63 62 62 62 62 62 62 62 61 62 62 62 63 62 63 64 64 65
86 86 85 86 86 86 84 84 84 84 83 84 83 83 83 83 83 82 82 82 81 80 80 80 81 80 80 81 82 84 83 82 81 82 82 83 83 82 83 87 88 88 86 85 81 70 69 65 62 65 67 65 63 63 62 62 62 61 61 59 58 59 60 60 61 61 61 61 62 62 63 63 63 64
88 88 87 86 86 85 85 85 85 84 84 84 83 83 82 83 82 82 82 81 80 80 79 80 81 81 81 81 79 82 83 82 82 80 80 80 82 82 81 81 84 85 84 79 72 75 73 70 74 63 61 63 64 64 63 63 62 62 60 58 57 57 57 58 59 60 59 60 60 59 59 59 61 62
89 89 89 89 88 87 86 85 86 85 83 84 83 84 83 83 81 81 82 81 80 79 80 79 80 81 80 79 81 83 80 78 79 80 80 78 79 79 79 81 80 81 81 81 85 74 72 71 68 62 62 64 65 64 65 65 66 64 61 60 60 60 59 58 59 59 58 58 57 57 57 58 59 60
89 89 90 90 90 87 81 79 80 81 80 85 82 83 83 82 81 81 81 81 80 80 79 79 80 80 79 80 79 78 78 77 78 80 80 78 79 80 79 79 80 80 79 80 81 79 80 80 79 80 80 80 73 72 67 72 69 66 61 60 61 61 60 59 59 59 59 58 58 58 58 58 59 61
88 89 90 90 81 77 75 74 74 75 75 76 83 84 83 82 81 80 80 80 80 80 78 79 79 78 79 80 79 79 80 81 81 80 78 76 79 79 77 78 78 79 79 78 76 77 80 79 79 80 79 82 80 82 81 82 77 68 62 62 61 61 61 59 59 58 58 58 58 58 57 58 59 59
86 88 88 89 84 79 76 78 72 74 73 73 74 76 78 79 82 81 80 80 81 79 79 80 80 80 79 80 81 80 82 83 80 79 78 78 78 76 74 73 77 78 77 75 75 75 79 79 75 77 79 81 82 83 82 67 69 66 65 62 62 61 61 61 61 60 59 58 58 57 57 57 58 58
86 87 88 88 88 87 85 84 81 76 72 70 71 71 72 73 73 75 80 81 80 79 79 79 79 80 80 80 81 82 83 80 79 79 79 77 76 75 74 74 74 77 77 75 73 73 78 79 77 77 79 82 82 84 72 66 66 63 63 62 61 61 61 61 61 62 61 61 61 61 60 60 60 59
86 86 86 87 86 87 76 80 84 82 79 70 68 69 69 70 70 68 68 71 80 84 80 80 80 80 81 80 81 82 82 82 78 78 77 77 76 76 75 75 77 77 77 75 72 73 78 80 79 79 81 83 82 83 71 65 65 63 62 62 62 61 61 61 61 61 60 60 59 59 59 58 58 58
86 85 85 85 85 86 83 83 83 83 81 79 77 76 77 79 76 68 66 68 69 74 81 81 79 81 82 80 81 83 82 79 77 77 77 78 77 75 74 76 76 78 78 74 74 72 78 81 80 78 80 82 81 81 71 61 64 64 63 62 61 60 59 59 59 59 59 59 59 58 57 56 56 56
86 86 86 86 85 84 84 83 81 83 82 82 80 79 80 81 82 81 82 81 79 79 81 81 82 83 83 83 83 83 81 80 80 80 78 77 77 76 76 76 77 79 80 77 74 70 77 80 77 77 79 82 80 81 71 64 64 63 62 61 62 60 59 59 59 59 59 59 58 57 56 56 55 54
86 86 86 85 85 85 84 76 70 76 83 83 80 79 79 79 81 83 79 75 75 81 82 82 84 85 82 76 82 82 83 80 79 80 81 78 75 73 73 72 79 77 81 78 75 73 75 79 78 78 80 80 78 79 80 69 62 62 61 62 61 60 58 58 58 58 58 58 58 57 56 54 53 53
86 85 86 86 85 85 85 73 65 68 74 83 81 80 79 80 81 81 83 71 68 68 68 67 68 61 59 60 61 63 67 74 78 80 76 74 77 73 70 73 75 77 82 78 77 77 74 77 77 76 78 77 76 77 78 80 66 61 62 61 60 59 59 59 58 58 58 58 58 58 58 55 54 54
85 85 76 81 86 84 85 66 63 64 73 81 80 80 79 78 78 80 83 80 77 66 66 64 62 61 62 61 62 63 64 63 72 77 73 78 79 75 75 73 77 82 82 82 84 75 74 77 77 75 76 76 77 78 79 79 77 66 61 59 60 60 60 59 58 58 58 58 58 58 56 55 54 64
85 85 79 72 78 81 79 60 62 62 71 81 81 79 78 77 78 80 81 77 76 75 77 76 75 72 69 72 75 72 62 66 71 78 79 81 78 76 76 79 79 76 78 82 79 72 74 74 77 75 72 71 76 79 78 78 77 78 78 78 74 62 59 60 58 57 56 57 58 58 56 55 56 70
84 83 84 76 66 66 65 58 59 59 64 78 80 80 78 77 76 81 80 79 79 76 78 78 78 78 78 77 77 77 73 73 74 77 80 80 80 77 78 80 78 75 77 76 80 74 76 76 74 77 74 69 68 74 77 76 77 78 78 76 77 70 66 62 60 56 55 57 57 56 55 55 56 71
84 83 83 84 68 62 60 56 56 57 58 67 79 79 78 78 79 78 81 78 76 78 78 79 78 79 79 79 81 82 79 79 78 77 79 81 83 82 80 79 79 79 80 77 74 75 72 75 73 74 73 72 73 72 74 75 76 77 77 77 76 77 76 77 74 78 64 56 53 53 54 55 55 62
85 84 83 83 70 60 58 56 55 54 57 61 75 77 67 67 66 79 81 79 78 79 79 79 78 79 79 80 82 82 81 82 81 81 81 82 83 83 82 79 77 76 77 73 68 75 73 71 73 72 71 70 72 73 70 71 74 77 77 78 77 76 77 77 78 76 76 78 77 68 70 59 57 55
85 85 85 83 65 59 55 54 54 54 55 58 70 62 60 60 63 74 82 79 78 79 79 78 77 78 79 79 80 81 81 82 81 83 83 83 81 80 81 81 81 79 79 77 76 76 73 72 74 71 69 70 67 69 69 70 72 75 75 78 77 77 78 79 77 76 77 77 76 64 60 59 58 59
86 85 83 80 59 56 53 52 53 55 56 66 60 56 57 60 66 80 80 78 78 77 78 77 77 77 79 80 79 80 82 82 80 82 82 80 80 79 79 79 78 79 79 79 78 76 74 72 73 73 71 69 67 66 66 72 73 73 72 76 77 78 78 78 77 75 76 76 76 76 76 76 77 75
87 74 67 62 54 55 53 53 53 55 55 58 58 57 56 65 78 78 79 78 77 76 76 77 76 76 77 79 80 80 80 81 81 77 80 81 80 80 79 78 78 77 77 79 78 77 75 73 71 72 71 71 69 69 69 68 70 71 72 70 71 75 76 76 76 76 76 76 75 75 74 75 74 74
70 64 61 56 55 55 57 62 64 65 63 58 59 57 60 76 78 78 79 77 76 76 77 77 76 77 78 79 79 79 79 77 76 76 77 77 77 78 76 75 74 76 78 78 79 78 76 74 72 71 70 70 70 69 69 69 68 71 71 70 72 74 75 77 76 76 75 74 74 74 75 75 74 73
79 68 65 66 60 61 58 62 62 64 61 61 63 66 71 76 78 78 78 78 77 76 78 78 79 79 79 79 77 74 74 74 75 76 75 76 76 76 76 73 73 74 75 77 79 79 77 75 73 72 68 68 70 69 69 70 68 68 70 72 72 68 72 75 75 75 75 74 74 74 74 74 74 73
82 76 62 60 65 64 63 66 67 69 66 66 67 70 72 75 78 76 75 76 79 78 79 80 78 78 77 76 75 75 75 76 76 76 75 75 76 77 75 72 71 74 76 77 76 76 75 74 73 72 71 69 66 68 69 69 68 69 70 72 72 74 75 74 74 74 74 73 72 71 71 73 73 74
74 69 67 66 65 63 63 65 66 67 66 68 70 71 73 76 78 77 78 77 76 77 77 76 75 75 76 75 75 75 76 74 75 76 75 74 75 75 75 73 72 73 74 75 75 75 76 76 75 72 71 71 70 68 67 66 69 71 71 72 72 72 73 75 74 73 72 70 69 70 69 71 73 74
69 67 66 65 63 62 64 65 66 66 67 68 69 71 69 74 77 76 77 77 77 77 76 76 74 74 74 75 75 76 75 74 76 76 71 73 74 72 73 72 71 74 74 73 74 74 75 74 73 72 72 71 72 71 69 67 67 70 71 72 71 71 73 73 73 72 70 70 69 67 68 70 73 74
67 66 65 63 64 64 65 65 66 67 67 68 69 71 72 71 71 71 74 78 77 75 75 74 74 74 75 75 75 75 75 75 75 76 74 74 73 73 73 72 72 74 74 72 73 73 73 71 70 70 70 70 70 72 72 71 70 70 71 71 72 71 70 72 72 71 70 69 70 67 67 69 70 74
65 66 65 64 64 65 65 64 66 67 68 69 69 69 69 70 70 71 74 75 77 75 74 73 73 75 74 75 75 76 76 74 75 75 74 73 73 74 74 73 74 74 73 73 72 74 73 72 71 69 67 68 68 67 71 69 69 73 70 69 71 70 70 70 70 70 70 69 69 68 66 66 68 71
64 65 65 64 65 65 64 64 64 64 64 65 66 68 67 68 68 71 73 72 76 74 74 75 75 75 75 75 74 74 75 74 75 75 73 72 73 73 73 73 73 72 72 72 73 73 72 71 70 69 67 67 66 66 69 73 64 64 72 69 68 70 69 69 68 68 70 70 68 69 68 67 67 70
64 65 64 64 65 65 65 64 63 64 63 64 65 66 66 67 71 72 73 73 74 75 75 76 76 75 77 75 75 75 76 75 75 74 73 72 72 73 73 73 73 72 71 72 72 72 72 71 70 69 68 66 65 66 67 71 72 69 62 67 68 69 70 68 68 68 67 70 69 69 70 68 68 69
65 64 64 64 65 65 65 64 64 64 65 65 65 66 67 69 69 71 71 73 75 75 76 75 76 75 75 76 75 75 74 74 74 74 76 75 75 73 73 73 72 73 72 71 72 72 71 70 70 70 69 67 66 67 68 66 66 71 67 57 67 69 69 69 68 68 68 67 68 68 68 69 68 65
65 65 65 65 65 65 64 65 64 65 65 66 66 67 67 65 67 67 69 69 72 74 76 76 76 73 76 76 75 76 76 75 76 78 77 75 74 73 73 72 71 71 70 70 70 71 71 71 71 71 71 70 70 70 70 69 70 71 72 68 56 64 70 71 68 67 66 67 67 65 64 66 65 67
64 64 65 65 65 65 64 64 65 67 67 68 68 64 66 67 67 67 67 69 71 73 76 76 76 75 76 76 76 77 76 76 76 76 75 74 73 72 70 67 70 70 69 69 70 70 71 72 69 62 66 69 69 70 68 66 66 70 71 74 58 52 57 61 69 67 66 66 65 64 63 62 62 62
64 65 64 65 65 64 64 65 66 67 67 67 67 67 67 68 67 63 68 69 72 73 75 76 76 75 76 76 76 75 75 74 74 74 75 74 73 70 67 68 69 70 69 69 70 71 73 73 72 70 70 69 69 66 65 66 66 68 70 72 74 62 53 52 55 59 67 67 65 63 62 63 63 59
64 64 64 64 65 65 65 65 66 66 66 67 66 66 65 67 68 68 70 70 72 74 76 76 75 76 77 76 76 75 76 75 74 74 74 73 73 71 69 68 69 71 71 71 72 71 72 72 71 71 70 70 69 68 66 67 68 68 68 71 71 73 74 64 60 57 55 56 58 62 64 62 59 54
63 63 64 64 64 64 65 65 65 65 66 66 66 66 67 67 67 69 71 72 73 75 76 76 76 76 75 75 75 74 75 75 74 72 72 71 72 72 71 71 70 70 71 70 70 71 72 72 72 71 70 69 70 68 67 68 68 69 69 69 70 70 70 72 73 67 64 63 59 56 54 55 57 57
63 64 64 64 64 64 64 64 64 64 65 65 64 65 66 67 69 71 73 73 74 75 75 76 75 75 75 74 74 73 73 68 71 73 72 72 72 71 72 72 70 69 69 70 69 69 70 70 71 72 70 70 70 69 68 68 67 67 68 68 69 70 71 70 68 68 69 70 61 56 58 56 56 55
MSLP
1017.90 1018.14 1018.34 1018.58 1018.53 1018.38 1018.34 1018.41 1018.46 1018.61 1018.82 1018.97 1019.22 1019.34 1020.05 1020.53 1021.41 1021.82 1021.78 1021.46 1020.85 1019.82 1019.17 1019.82 1019.66 1019.22 1019.41 1019.58 1019.26 1019.58 1019.66 1019.49 1019.73 1019.61 1019.61 1019.66 1019.73 1020.05 1020.46 1020.70 1020.82 1020.97 1021.09 1021.22 1021.26 1021.29 1021.34 1021.34 1021.34 1021.34 1021.29 1021.29 1021.26 1021.22 1021.14 1021.05 1021.02 1020.97 1020.93 1020.85 1020.82 1020.73 1020.70 1020.66 1020.66 1020.61 1020.58 1020.53 1020.49 1020.46 1020.41 1020.38 1020.38 1020.34
1017.61 1017.73 1017.93 1018.17 1018.34 1018.22 1018.34 1018.46 1018.34 1018.49 1018.85 1019.02 1019.14 1019.26 1019.34 1019.58 1020.70 1021.02 1021.66 1021.22 1020.22 1020.09 1019.34 1019.02 1019.61 1019.49 1019.46 1019.34 1019.46 1019.38 1019.41 1019.58 1019.70 1019.58 1019.49 1019.58 1019.53 1020.05 1020.29 1020.46 1020.61 1020.78 1020.90 1021.02 1021.05 1021.09 1021.09 1021.14 1021.17 1021.17 1021.17 1021.14 1021.09 1021.02 1020.93 1020.90 1020.85 1020.78 1020.73 1020.70 1020.66 1020.58 1020.49 1020.41 1020.38 1020.34 1020.34 1020.34 1020.29 1020.26 1020.26 1020.26 1020.22 1020.17
1017.46 1017.70 1017.90 1017.90 1018.05 1017.93 1018.09 1018.05 1018.09 1018.22 1018.58 1018.73 1018.78 1018.90 1019.02 1019.29 1019.61 1020.17 1020.61 1021.58 1020.02 1019.22 1019.82 1019.14 1018.38 1019.09 1019.29 1019.02 1019.17 1019.29 1019.29 1019.53 1019.66 1019.58 1019.49 1019.49 1019.82 1020.05 1020.17 1020.38 1020.49 1020.61 1020.73 1020.78 1020.82 1020.85 1020.90 1020.93 1020.93 1020.97 1020.93 1020.90 1020.85 1020.82 1020.78 1020.73 1020.66 1020.61 1020.53 1020.49 1020.41 1020.38 1020.29 1020.22 1020.17 1020.14 1020.09 1020.09 1020.05 1020.05 1020.02 1020.02 1020.02 1019.97
1017.22 1017.53 1017.78 1017.82 1017.90 1017.78 1017.85 1017.93 1017.90 1018.02 1018.17 1018.26 1018.49 1018.61 1018.85 1019.05 1019.17 1019.46 1020.09 1020.70 1020.58 1019.26 1019.26 1018.93 1018.85 1018.70 1019.02 1019.05 1019.29 1019.34 1019.17 1019.26 1019.61 1019.49 1019.41 1019.53 1019.90 1019.93 1019.73 1020.05 1020.22 1020.41 1020.49 1020.58 1020.66 1020.66 1020.70 1020.70 1020.70 1020.70 1020.70 1020.70 1020.66 1020.61 1020.61 1020.58 1020.53 1020.46 1020.38 1020.29 1020.26 1020.22 1020.14 1020.09 1020.02 1019.93 1019.90 1019.85 1019.85 1019.82 1019.78 1019.73 1019.73 1019.73
1016.97 1017.26 1017.49 1017.53 1017.58 1017.46 1017.78 1017.78 1017.73 1017.73 1017.97 1018.09 1018.26 1018.34 1018.58 1018.93 1018.93 1019.29 1019.85 1020.34 1020.38 1019.38 1018.58 1018.78 1018.73 1018.46 1018.61 1019.17 1019.17 1019.41 1019.29 1019.26 1019.38 1019.41 1019.34 1019.38 1019.58 1019.41 1019.26 1019.38 1019.82 1020.05 1020.29 1020.41 1020.46 1020.49 1020.49 1020.49 1020.53 1020.58 1020.58 1020.58 1020.53 1020.49 1020.41 1020.38 1020.34 1020.29 1020.26 1020.22 1020.17 1020.14 1020.05 1019.97 1019.90 1019.82 1019.73 1019.66 1019.61 1019.58 1019.53 1019.46 1019.41 1019.41
1016.70 1016.93 1017.17 1017.22 1017.26 1017.22 1017.53 1017.53 1017.66 1017.58 1017.70 1017.90 1018.05 1018.17 1018.29 1018.49 1018.61 1018.53 1019.29 1019.73 1019.90 1020.05 1019.09 1019.26 1018.66 1018.70 1018.66 1019.34 1018.78 1019.29 1019.38 1019.17 1019.14 1019.41 1019.34 1019.22 1019.22 1019.26 1019.14 1019.02 1019.46 1019.90 1020.02 1020.17 1020.26 1020.26 1020.26 1020.29 1020.34 1020.38 1020.38 1020.34 1020.29 1020.26 1020.26 1020.26 1020.22 1020.17 1020.09 1020.05 1020.02 1019.97 1019.93 1019.93 1019.85 1019.70 1019.58 1019.49 1019.41 1019.38 1019.34 1019.26 1019.17 1019.09
1016.38 1016.66 1016.78 1016.85 1016.85 1016.90 1017.29 1017.38 1017.38 1017.26 1017.41 1017.41 1017.70 1017.90 1017.85 1018.17 1018.14 1018.17 1018.49 1019.09 1019.66 1019.70 1019.38 1018.73 1019.05 1018.97 1018.85 1019.09 1019.02 1018.93 1018.93 1018.85 1018.85 1019.26 1019.26 1019.17 1019.05 1019.02 1018.97 1018.93 1018.85 1019.53 1019.73 1019.93 1020.02 1020.02 1020.05 1020.14 1020.17 1020.22 1020.22 1020.17 1020.14 1020.14 1020.14 1020.14 1020.09 1020.05 1019.97 1019.93 1019.85 1019.78 1019.78 1019.70 1019.66 1019.53 1019.46 1019.34 1019.26 1019.14 1019.09 1019.05 1018.97 1018.90
1016.02 1016.17 1016.41 1016.34 1016.34 1016.58 1017.05 1017.17 1017.22 1017.09 1017.09 1017.29 1017.49 1017.70 1017.73 1017.90 1018.05 1017.97 1018.17 1018.53 1018.97 1019.09 1019.49 1018.85 1018.90 1018.49 1018.82 1018.85 1018.61 1018.58 1018.66 1018.82 1018.90 1018.93 1018.85 1018.82 1018.93 1018.78 1018.73 1018.85 1018.85 1019.29 1019.58 1019.73 1019.78 1019.82 1019.85 1019.93 1019.97 1020.02 1020.05 1020.09 1020.09 1020.05 1020.02 1020.02 1019.93 1019.78 1019.70 1019.66 1019.61 1019.61 1019.61 1019.58 1019.49 1019.38 1019.29 1019.22 1019.14 1019.02 1018.97 1018.90 1018.85 1018.78
1015.41 1015.61 1015.78 1015.78 1015.90 1016.22 1016.73 1016.82 1016.90 1016.82 1017.02 1017.05 1017.17 1017.49 1017.53 1017.70 1017.78 1017.85 1018.02 1018.34 1018.53 1018.97 1019.26 1018.93 1018.53 1018.41 1018.49 1018.38 1018.41 1018.41 1018.90 1018.97 1018.85 1018.73 1018.90 1018.78 1018.78 1018.78 1018.53 1018.38 1018.41 1018.93 1019.17 1019.41 1019.49 1019.53 1019.53 1019.53 1019.61 1019.66 1019.70 1019.78 1019.90 1019.85 1019.85 1019.78 1019.61 1019.49 1019.41 1019.34 1019.29 1019.29 1019.34 1019.38 1019.34 1019.26 1019.14 1019.05 1018.97 1018.93 1018.90 1018.85 1018.82 1018.73
1014.73 1014.97 1015.14 1015.22 1015.38 1015.70 1016.17 1016.29 1016.34 1016.41 1016.70 1016.82 1017.02 1017.22 1017.29 1017.38 1017.49 1017.78 1017.90 1018.05 1018.38 1018.66 1018.82 1018.82 1018.78 1018.61 1018.82 1018.73 1018.66 1018.41 1018.53 1018.97 1019.14 1018.97 1018.78 1018.66 1018.61 1018.73 1018.82 1018.46 1018.22 1018.34 1018.70 1018.90 1019.05 1019.17 1019.09 1019.22 1019.38 1019.29 1019.17 1019.02 1019.17 1019.38 1019.46 1019.41 1019.29 1019.26 1019.22 1019.17 1019.14 1019.05 1019.05 1019.09 1019.05 1019.02 1018.97 1018.93 1018.85 1018.78 1018.73 1018.70 1018.66 1018.58
1014.05 1014.26 1014.46 1014.66 1014.82 1015.14 1015.38 1015.61 1015.82 1016.02 1016.26 1016.41 1016.66 1016.78 1017.05 1017.09 1017.38 1017.58 1017.70 1017.82 1018.17 1018.38 1018.61 1018.53 1018.38 1018.46 1018.29 1018.41 1018.85 1018.38 1018.22 1018.49 1018.66 1019.02 1019.02 1019.05 1018.49 1018.58 1018.73 1018.90 1018.53 1018.41 1018.58 1018.61 1018.78 1018.70 1018.70 1018.93 1018.93 1018.97 1019.05 1019.14 1019.05 1019.02 1019.02 1018.93 1018.93 1018.93 1018.93 1018.90 1018.90 1018.90 1018.97 1018.97 1018.93 1018.85 1018.82 1018.82 1018.82 1018.78 1018.73 1018.66 1018.58 1018.49
1013.46 1013.61 1013.78 1013.90 1014.14 1014.41 1014.66 1014.93 1015.05 1015.26 1015.73 1015.82 1016.22 1016.26 1016.53 1016.78 1017.14 1017.38 1017.41 1017.58 1017.78 1018.09 1018.22 1018.34 1018.29 1018.17 1018.29 1018.38 1018.09 1017.93 1018.46 1018.93 1018.93 1018.73 1018.90 1019.22 1018.93 1018.78 1018.58 1018.53 1018.82 1018.66 1018.70 1018.70 1018.38 1018.70 1018.78 1018.78 1018.82 1018.93 1019.02 1018.90 1018.82 1018.70 1018.61 1018.53 1018.46 1018.49 1018.58 1018.70 1018.78 1018.85 1018.85 1018.85 1018.82 1018.78 1018.78 1018.73 1018.66 1018.61 1018.61 1018.58 1018.46 1018.38
1013.02 1013.05 1013.14 1013.26 1013.38 1013.70 1014.05 1014.29 1014.41 1014.53 1014.78 1015.26 1015.82 1015.90 1016.05 1016.49 1016.82 1017.14 1017.17 1017.29 1017.49 1017.66 1017.85 1018.02 1017.85 1018.05 1018.17 1018.22 1018.41 1018.53 1018.66 1018.82 1018.73 1018.29 1018.38 1018.73 1018.58 1018.49 1018.61 1018.58 1018.49 1018.58 1018.73 1018.53 1018.53 1018.66 1018.49 1018.53 1018.49 1018.38 1018.34 1018.17 1018.29 1018.26 1018.26 1018.14 1018.09 1018.14 1018.46 1018.66 1018.73 1018.70 1018.70 1018.66 1018.58 1018.49 1018.46 1018.41 1018.38 1018.34 1018.34 1018.29 1018.26 1018.14
1012.66 1012.66 1012.66 1012.66 1013.02 1013.38 1013.78 1014.09 1014.34 1014.49 1014.66 1014.73 1014.85 1015.22 1015.58 1015.97 1016.41 1016.78 1017.02 1017.14 1017.17 1017.38 1017.70 1017.73 1017.73 1018.02 1018.02 1017.78 1017.85 1018.05 1017.93 1017.73 1017.78 1018.09 1018.41 1018.90 1018.53 1018.53 1018.82 1018.66 1018.49 1018.34 1018.53 1018.73 1018.93 1018.66 1018.29 1018.46 1018.29 1018.14 1018.17 1017.70 1017.70 1017.58 1017.53 1017.34 1017.38 1018.05 1018.41 1018.49 1018.53 1018.49 1018.46 1018.46 1018.41 1018.38 1018.34 1018.34 1018.34 1018.29 1018.26 1018.14 1018.05 1017.93
1012.46 1012.38 1012.38 1012.41 1012.70 1013.17 1013.58 1013.85 1014.17 1014.41 1014.61 1014.70 1014.82 1014.90 1014.97 1015.14 1015.58 1016.22 1016.66 1016.73 1016.73 1017.05 1017.29 1017.14 1017.29 1017.41 1017.53 1017.29 1017.26 1017.66 1017.46 1017.34 1017.70 1018.05 1018.17 1018.46 1018.49 1018.90 1019.17 1019.29 1018.41 1018.14 1018.41 1018.78 1018.85 1018.70 1017.97 1018.02 1018.49 1018.22 1017.97 1017.61 1017.26 1017.14 1017.22 1017.58 1017.70 1017.90 1018.05 1018.22 1018.26 1018.26 1018.26 1018.26 1018.22 1018.22 1018.22 1018.22 1018.14 1018.09 1018.02 1017.90 1017.82 1017.73
1011.93 1012.05 1012.14 1012.17 1012.22 1012.53 1012.93 1013.29 1013.85 1014.22 1014.41 1014.61 1014.70 1014.85 1014.97 1015.14 1015.17 1015.26 1015.66 1016.17 1016.53 1016.66 1016.82 1016.97 1016.90 1016.93 1017.09 1017.05 1016.97 1016.97 1016.97 1017.34 1017.61 1017.78 1017.90 1018.17 1018.49 1018.70 1018.90 1018.85 1018.93 1018.14 1018.26 1018.66 1018.85 1018.78 1017.93 1017.73 1018.09 1018.02 1017.53 1017.17 1017.05 1016.93 1017.14 1017.38 1017.61 1017.82 1018.02 1018.05 1018.09 1018.09 1018.09 1018.05 1018.02 1017.93 1017.90 1017.82 1017.78 1017.73 1017.70 1017.66 1017.58 1017.53
1011.49 1011.61 1011.82 1011.93 1011.97 1011.97 1012.49 1012.97 1013.17 1013.58 1014.09 1014.46 1014.61 1014.73 1014.93 1015.05 1015.14 1015.29 1015.46 1015.53 1015.66 1015.58 1016.22 1016.53 1016.53 1016.49 1016.53 1016.82 1016.66 1016.46 1016.73 1016.82 1017.58 1017.73 1017.97 1017.97 1018.17 1018.26 1018.53 1018.46 1018.34 1018.14 1018.02 1018.49 1018.90 1018.73 1017.82 1017.34 1017.46 1017.46 1016.93 1016.82 1016.78 1016.78 1016.90 1017.29 1017.53 1017.70 1017.82 1017.90 1017.93 1017.93 1017.90 1017.90 1017.85 1017.82 1017.78 1017.73 1017.66 1017.61 1017.61 1017.58 1017.49 1017.41
1010.90 1011.05 1011.29 1011.58 1011.78 1011.73 1012.14 1012.46 1012.78 1013.05 1013.46 1013.97 1014.46 1014.73 1014.85 1014.85 1014.97 1015.26 1015.41 1015.58 1015.70 1015.73 1015.70 1015.78 1016.17 1015.82 1015.82 1016.34 1016.22 1016.05 1016.26 1016.97 1017.41 1017.61 1017.73 1017.66 1017.90 1018.22 1018.34 1018.02 1018.02 1017.82 1017.85 1018.49 1018.49 1018.61 1017.58 1016.97 1017.22 1017.29 1016.93 1016.66 1016.73 1016.73 1016.82 1017.17 1017.29 1017.46 1017.58 1017.66 1017.70 1017.70 1017.66 1017.66 1017.61 1017.58 1017.49 1017.46 1017.41 1017.38 1017.34 1017.26 1017.17 1017.09
1010.17 1010.38 1010.53 1010.78 1011.05 1011.29 1011.53 1011.78 1012.17 1012.58 1012.93 1013.34 1013.90 1014.22 1014.34 1014.38 1014.29 1014.46 1014.70 1014.97 1015.26 1015.46 1015.46 1015.49 1015.34 1015.38 1015.34 1015.53 1015.66 1015.73 1016.02 1016.41 1016.70 1016.82 1017.22 1017.41 1017.58 1017.70 1017.66 1017.82 1017.70 1017.58 1017.34 1017.73 1018.29 1018.82 1017.73 1017.09 1017.41 1017.29 1016.90 1016.61 1016.61 1016.46 1016.58 1016.73 1016.93 1017.14 1017.34 1017.41 1017.41 1017.41 1017.38 1017.29 1017.26 1017.17 1017.14 1017.09 1017.05 1016.97 1016.90 1016.82 1016.78 1016.66
1009.29 1009.53 1009.85 1010.22 1010.41 1010.61 1010.85 1011.22 1011.73 1012.05 1012.26 1012.78 1013.41 1013.85 1013.97 1014.05 1013.97 1013.78 1013.61 1013.90 1014.29 1014.53 1014.73 1014.90 1014.90 1014.85 1015.02 1015.17 1015.29 1015.41 1015.70 1016.14 1016.41 1016.53 1016.73 1017.09 1017.61 1017.97 1018.22 1018.34 1017.34 1017.41 1016.66 1017.17 1017.85 1018.22 1017.78 1017.05 1017.34 1017.14 1016.70 1016.61 1016.78 1016.49 1016.38 1016.41 1016.70 1016.85 1017.02 1017.14 1017.14 1017.09 1017.05 1016.97 1016.90 1016.85 1016.78 1016.70 1016.61 1016.53 1016.46 1016.38 1016.29 1016.22
1008.53 1008.73 1008.93 1009.22 1009.66 1009.97 1010.26 1010.61 1011.26 1011.73 1012.05 1012.34 1012.82 1013.09 1013.49 1013.53 1013.53 1013.53 1013.14 1013.38 1013.82 1014.22 1014.46 1014.61 1014.82 1015.14 1015.22 1015.29 1015.49 1015.66 1015.85 1015.93 1015.97 1016.38 1017.17 1017.66 1017.38 1017.93 1018.17 1017.85 1017.53 1017.09 1016.38 1016.90 1017.05 1017.29 1017.82 1017.34 1017.26 1017.26 1016.90 1016.85 1016.85 1016.70 1016.41 1016.17 1016.29 1016.61 1016.73 1016.78 1016.73 1016.70 1016.61 1016.58 1016.49 1016.46 1016.38 1016.26 1016.17 1016.09 1016.02 1015.97 1015.90 1015.82
1007.93 1008.09 1008.34 1008.53 1008.82 1009.17 1009.49 1010.17 1010.70 1011.29 1011.73 1012.05 1012.29 1012.73 1013.14 1013.46 1013.46 1013.26 1012.85 1013.29 1013.66 1014.02 1014.41 1014.73 1014.97 1015.14 1015.29 1015.49 1015.66 1015.78 1015.93 1016.05 1016.05 1016.38 1017.29 1016.73 1016.66 1017.22 1017.29 1017.61 1017.05 1016.29 1016.09 1016.05 1016.02 1017.46 1017.78 1017.14 1017.05 1017.38 1017.02 1016.85 1016.58 1016.26 1016.02 1015.97 1016.09 1016.22 1016.22 1016.22 1016.17 1016.17 1016.17 1016.17 1016.09 1016.02 1015.93 1015.85 1015.78 1015.66 1015.58 1015.53 1015.58 1015.41
1007.58 1007.70 1007.97 1008.29 1008.46 1008.61 1008.85 1009.73 1010.26 1010.85 1011.22 1011.46 1011.66 1012.14 1012.70 1012.97 1013.09 1012.73 1012.66 1013.34 1013.78 1014.29 1014.53 1014.73 1014.93 1015.26 1015.38 1015.49 1015.58 1015.82 1016.09 1016.09 1016.09 1015.97 1016.09 1016.05 1016.41 1016.82 1016.70 1016.29 1016.22 1016.85 1016.58 1015.73 1016.17 1017.61 1017.38 1017.34 1016.97 1017.17 1017.41 1017.41 1016.49 1016.05 1016.05 1016.05 1015.97 1015.85 1015.70 1015.53 1015.58 1015.66 1015.73 1015.70 1015.61 1015.58 1015.46 1015.38 1015.34 1015.29 1015.22 1015.14 1015.22 1014.97
1007.09 1007.29 1007.46 1007.93 1008.29 1008.53 1008.85 1009.41 1009.85 1010.41 1010.73 1010.82 1011.02 1011.41 1012.05 1012.41 1012.66 1011.97 1012.38 1012.73 1013.14 1013.78 1013.97 1014.05 1014.34 1014.58 1014.78 1014.97 1015.17 1015.41 1015.93 1016.05 1015.97 1015.85 1015.78 1015.82 1015.85 1016.17 1016.22 1016.09 1016.41 1016.85 1016.38 1016.53 1016.17 1017.17 1017.14 1017.09 1017.26 1016.85 1017.17 1017.66 1017.49 1016.53 1016.17 1016.02 1015.82 1015.70 1015.53 1015.46 1015.34 1015.14 1015.09 1015.09 1015.02 1014.93 1014.93 1014.90 1014.90 1014.85 1014.78 1014.70 1014.78 1014.58
1006.22 1006.58 1006.73 1006.93 1007.58 1008.22 1008.70 1009.17 1009.49 1010.02 1010.38 1010.41 1010.49 1010.73 1011.22 1011.41 1011.41 1011.46 1012.02 1012.70 1012.85 1013.29 1013.58 1013.78 1014.05 1014.26 1014.29 1014.38 1014.26 1014.46 1014.97 1015.26 1015.53 1015.70 1015.61 1015.29 1015.05 1015.34 1015.78 1016.05 1016.05 1016.09 1015.85 1016.22 1016.41 1016.90 1017.46 1017.14 1017.26 1017.09 1017.22 1017.29 1017.02 1016.85 1016.26 1016.17 1015.90 1015.61 1015.29 1015.14 1015.02 1014.78 1014.70 1014.58 1014.38 1014.14 1014.09 1014.26 1014.26 1014.22 1014.17 1014.22 1014.26 1014.29
1005.17 1005.29 1005.66 1006.05 1006.73 1007.58 1008.22 1008.61 1008.97 1009.46 1009.93 1010.17 1010.26 1010.29 1010.61 1010.90 1011.26 1011.46 1011.66 1012.26 1012.73 1012.93 1013.29 1013.41 1013.78 1013.82 1013.82 1013.93 1013.97 1014.14 1014.41 1014.41 1014.70 1015.14 1015.14 1015.14 1015.02 1015.05 1015.22 1015.53 1015.90 1016.17 1015.97 1016.22 1016.46 1016.85 1017.22 1017.34 1017.14 1017.29 1017.29 1017.46 1017.05 1016.78 1016.70 1016.41 1015.85 1015.29 1015.05 1014.85 1014.70 1014.53 1014.38 1014.22 1014.05 1013.90 1013.78 1013.53 1013.41 1013.49 1013.58 1013.73 1013.78 1013.78
1004.46 1004.46 1004.73 1005.05 1005.85 1006.66 1007.41 1007.97 1008.41 1008.93 1009.41 1009.93 1009.97 1010.14 1010.53 1010.93 1011.14 1011.34 1011.49 1011.93 1012.41 1012.53 1012.85 1013.17 1013.49 1013.38 1013.49 1013.66 1013.78 1013.82 1014.05 1014.02 1014.05 1014.34 1014.41 1014.61 1014.97 1015.02 1015.02 1015.05 1015.34 1015.66 1015.70 1016.02 1016.34 1016.58 1016.90 1017.05 1016.90 1017.29 1017.46 1017.34 1017.49 1017.09 1016.85 1016.49 1015.85 1015.34 1015.14 1014.66 1014.41 1014.22 1013.97 1013.85 1013.85 1013.73 1013.49 1013.41 1013.22 1013.17 1013.17 1013.09 1013.05 1012.97
1003.61 1003.97 1004.29 1004.58 1005.46 1006.17 1006.85 1007.38 1007.85 1008.41 1008.97 1009.26 1009.61 1010.14 1010.49 1010.82 1011.02 1011.14 1011.29 1011.78 1012.05 1012.26 1012.53 1012.93 1013.14 1013.22 1013.09 1013.05 1013.38 1013.38 1013.34 1013.66 1013.78 1014.05 1014.29 1014.66 1014.78 1015.02 1015.14 1015.29 1015.46 1015.49 1015.70 1015.85 1016.02 1016.26 1016.49 1016.78 1016.78 1016.82 1017.09 1017.34 1017.46 1017.29 1017.02 1016.22 1015.78 1015.41 1015.26 1014.61 1014.38 1014.09 1013.85 1013.73 1013.61 1013.46 1013.29 1013.14 1013.02 1012.85 1012.73 1012.58 1012.34 1012.34
1003.05 1003.26 1003.70 1004.46 1005.61 1006.29 1006.73 1007.09 1007.70 1008.29 1008.66 1008.93 1009.29 1009.85 1010.38 1010.58 1010.73 1011.05 1011.09 1011.41 1011.78 1012.05 1012.22 1012.41 1012.73 1012.93 1012.90 1012.73 1012.78 1012.90 1013.09 1013.34 1013.66 1014.46 1014.53 1014.53 1014.73 1014.82 1015.05 1015.26 1015.38 1015.53 1015.73 1015.73 1015.82 1015.90 1016.09 1016.34 1016.61 1016.61 1016.85 1016.93 1017.09 1016.85 1016.73 1016.46 1016.02 1015.49 1015.05 1015.05 1014.82 1014.09 1013.82 1013.53 1013.26 1013.14 1013.02 1012.93 1012.85 1012.78 1012.66 1012.49 1012.29 1012.09
1002.97 1003.34 1003.70 1004.38 1005.29 1006.17 1006.78 1007.41 1007.78 1008.05 1008.41 1008.73 1009.09 1009.61 1010.05 1010.02 1010.17 1010.53 1010.70 1011.02 1011.41 1011.61 1011.70 1011.85 1012.29 1012.41 1012.41 1012.46 1012.34 1012.58 1013.09 1013.73 1014.22 1014.41 1014.61 1014.73 1014.97 1014.97 1015.26 1015.53 1015.58 1015.49 1015.46 1015.49 1015.53 1015.58 1015.73 1016.02 1016.29 1016.58 1016.78 1016.78 1016.73 1016.70 1016.41 1016.26 1015.93 1015.38 1015.02 1014.90 1014.46 1013.93 1013.49 1013.14 1013.05 1012.93 1012.90 1012.82 1012.66 1012.49 1012.26 1012.14 1012.05 1011.93
1002.85 1003.22 1003.53 1004.22 1005.02 1005.70 1006.41 1006.78 1007.17 1007.82 1008.58 1009.05 1009.29 1009.46 1009.53 1009.41 1009.49 1009.78 1010.02 1010.29 1010.73 1011.02 1011.22 1011.41 1011.66 1011.85 1011.97 1011.97 1012.34 1013.05 1013.53 1013.90 1013.93 1014.02 1014.38 1014.61 1014.73 1014.90 1014.93 1015.29 1015.46 1015.29 1015.17 1015.14 1015.17 1015.29 1015.53 1015.73 1016.02 1016.26 1016.66 1016.66 1016.49 1016.38 1016.17 1016.05 1015.85 1015.38 1014.82 1014.41 1014.22 1014.34 1013.49 1013.09 1012.90 1012.70 1012.61 1012.58 1012.46 1012.29 1012.14 1011.97 1011.70 1011.49
1002.14 1003.02 1003.58 1004.34 1005.29 1006.14 1006.85 1007.09 1007.46 1007.73 1008.17 1008.46 1008.73 1008.97 1009.05 1009.02 1008.85 1009.09 1009.41 1009.66 1010.05 1010.38 1010.49 1010.85 1011.17 1011.49 1011.82 1012.17 1012.53 1012.82 1013.26 1013.41 1013.58 1013.73 1014.09 1014.38 1014.41 1014.41 1014.70 1015.29 1015.41 1015.09 1014.66 1014.53 1014.82 1014.93 1015.34 1015.73 1015.93 1015.97 1016.22 1016.34 1016.46 1016.17 1015.93 1015.78 1015.49 1015.02 1014.61 1014.17 1013.82 1013.46 1013.09 1012.93 1012.73 1012.58 1012.46 1012.53 1012.49 1012.29 1012.09 1011.82 1011.49 1011.14
1001.73 1002.70 1003.70 1004.26 1005.09 1005.73 1006.17 1006.61 1006.97 1007.29 1007.78 1008.14 1008.26 1008.46 1008.58 1008.46 1008.41 1008.85 1009.22 1009.58 1009.93 1010.05 1010.38 1010.73 1011.09 1011.53 1011.82 1012.17 1012.26 1012.49 1012.78 1013.05 1013.26 1013.46 1013.90 1014.09 1014.26 1014.29 1014.29 1014.66 1014.78 1014.58 1014.46 1014.38 1014.38 1014.41 1014.58 1014.90 1015.29 1015.70 1015.82 1015.82 1015.78 1015.82 1015.90 1015.73 1015.05 1014.49 1014.26 1013.85 1013.61 1013.38 1013.05 1012.78 1012.66 1012.58 1012.53 1012.61 1012.46 1012.05 1011.78 1011.46 1011.14 1010.78
1002.26 1002.66 1003.14 1003.70 1004.34 1004.82 1005.22 1005.82 1006.29 1006.73 1007.26 1007.66 1007.97 1007.93 1007.93 1007.97 1008.05 1008.41 1008.73 1009.05 1009.41 1009.73 1010.05 1010.34 1010.85 1011.34 1011.66 1011.90 1012.02 1012.09 1012.38 1012.78 1012.97 1013.17 1013.61 1013.97 1014.02 1014.34 1014.29 1014.53 1014.58 1014.26 1014.22 1014.46 1014.41 1014.38 1014.46 1014.82 1015.17 1015.38 1015.38 1015.29 1015.09 1015.09 1015.26 1015.26 1014.85 1014.29 1013.90 1013.61 1013.46 1013.29 1012.85 1012.70 1012.53 1012.53 1012.53 1012.46 1012.26 1012.02 1011.58 1011.09 1010.66 1010.34
1002.09 1002.82 1003.26 1003.73 1003.93 1003.93 1004.14 1004.70 1005.17 1005.78 1006.49 1007.09 1007.38 1007.49 1007.70 1007.82 1008.05 1008.46 1008.70 1008.70 1008.97 1009.53 1009.85 1010.22 1010.53 1010.90 1011.17 1011.41 1011.53 1011.73 1011.97 1012.38 1012.73 1012.97 1013.41 1013.58 1013.82 1014.05 1014.09 1014.22 1014.14 1013.85 1013.97 1014.29 1014.22 1014.17 1014.41 1014.78 1015.05 1015.14 1015.05 1014.90 1014.61 1013.93 1013.78 1014.05 1014.26 1013.97 1013.66 1013.41 1013.22 1013.09 1012.90 1012.66 1012.53 1012.38 1012.34 1012.17 1011.93 1011.82 1011.34 1010.85 1010.46 1009.97
1001.02 1001.70 1002.26 1002.93 1003.49 1003.70 1003.82 1004.02 1004.41 1004.90 1005.58 1006.22 1006.78 1007.29 1007.90 1008.02 1007.97 1008.38 1008.61 1008.58 1008.73 1009.22 1009.66 1010.14 1010.46 1010.58 1010.85 1010.82 1011.05 1011.26 1011.58 1011.90 1012.34 1012.58 1013.02 1013.41 1013.49 1013.53 1013.61 1013.61 1013.46 1013.58 1013.85 1013.97 1013.97 1013.85 1014.05 1014.46 1014.78 1015.05 1015.14 1014.90 1014.66 1014.29 1013.38 1013.26 1013.53 1013.46 1013.61 1013.38 1013.09 1013.02 1012.78 1012.53 1012.38 1012.29 1012.17 1011.93 1011.66 1011.49 1011.17 1010.70 1010.14 1009.70
999.61 1000.58 1001.17 1001.66 1002.41 1003.02 1003.34 1003.78 1004.22 1004.73 1005.34 1006.09 1006.85 1007.46 1007.82 1008.02 1008.29 1008.61 1008.61 1008.49 1008.53 1008.97 1009.49 1009.85 1010.17 1010.49 1010.46 1010.38 1010.70 1010.97 1011.14 1011.66 1011.97 1012.17 1012.53 1012.93 1013.05 1013.17 1013.38 1013.29 1013.53 1013.85 1013.90 1013.78 1013.66 1013.70 1013.93 1014.29 1014.49 1014.78 1014.97 1014.82 1014.61 1014.34 1013.66 1013.17 1013.38 1013.22 1013.17 1013.26 1013.09 1012.82 1012.66 1012.46 1012.34 1012.14 1011.78 1011.61 1011.41 1011.22 1010.85 1010.46 1009.97 1009.58
998.41 998.93 999.49 1000.02 1000.66 1001.14 1001.66 1002.41 1003.02 1003.73 1004.58 1005.29 1005.73 1006.66 1007.73 1008.29 1008.38 1008.53 1008.34 1008.41 1008.53 1008.85 1009.34 1009.61 1009.90 1010.14 1009.97 1010.09 1010.34 1010.66 1010.82 1011.22 1011.61 1011.85 1012.17 1012.53 1012.78 1012.85 1012.97 1013.14 1013.26 1013.58 1013.66 1013.49 1013.38 1013.49 1013.61 1013.93 1014.26 1014.41 1014.66 1014.70 1014.49 1014.14 1013.82 1013.17 1013.09 1013.05 1013.02 1013.14 1013.02 1012.70 1012.41 1012.34 1012.14 1011.90 1011.61 1011.34 1011.22 1010.85 1010.58 1010.29 1009.82 1009.38
997.38 997.97 998.66 999.09 999.53 999.97 1000.61 1001.22 1001.70 1002.26 1003.14 1004.38 1005.02 1005.41 1006.22 1007.26 1008.05 1008.38 1008.46 1008.38 1008.38 1008.73 1009.02 1009.49 1009.58 1009.73 1009.73 1009.85 1009.93 1010.17 1010.70 1010.93 1011.26 1011.34 1011.34 1011.58 1011.82 1012.34 1012.70 1012.93 1013.22 1013.17 1013.29 1013.26 1013.09 1013.09 1013.29 1013.66 1013.85 1014.05 1014.14 1014.26 1014.26 1013.97 1013.85 1013.85 1013.53 1012.90 1012.58 1012.66 1012.58 1012.49 1012.26 1012.17 1011.90 1011.61 1011.46 1011.26 1010.93 1010.73 1010.53 1010.14 1009.66 1009.26
995.38 996.26 997.34 997.93 998.61 999.17 999.66 1000.22 1000.93 1001.49 1002.41 1003.49 1004.46 1005.02 1005.58 1006.49 1007.53 1008.34 1008.70 1008.61 1008.49 1008.66 1008.93 1009.14 1009.05 1009.49 1009.53 1009.53 1009.73 1009.82 1010.02 1010.34 1010.49 1010.49 1010.97 1011.38 1011.66 1012.09 1012.49 1012.78 1013.02 1013.05 1013.17 1013.05 1012.93 1012.78 1012.93 1013.22 1013.38 1013.58 1013.70 1013.82 1013.85 1013.85 1013.73 1013.53 1013.14 1012.61 1012.22 1011.82 1011.85 1012.09 1012.02 1011.90 1011.90 1011.70 1011.38 1011.17 1011.05 1010.82 1010.34 1009.90 1009.53 1009.02
993.78 994.78 995.82 996.49 997.66 998.58 999.34 999.82 1000.26 1001.02 1001.90 1002.78 1003.85 1004.73 1005.38 1006.29 1007.26 1007.85 1008.22 1008.26 1008.34 1008.70 1008.66 1008.73 1008.97 1009.34 1009.29 1009.29 1009.46 1009.49 1009.70 1009.90 1010.26 1010.70 1010.93 1011.22 1011.46 1011.93 1012.38 1012.78 1013.02 1013.05 1013.05 1012.78 1012.58 1012.58 1012.70 1012.70 1013.22 1013.73 1013.93 1013.90 1013.78 1013.70 1013.61 1013.34 1012.85 1012.02 1011.61 1011.26 1011.38 1011.61 1011.53 1011.58 1011.58 1011.61 1011.41 1011.14 1011.02 1010.73 1010.26 1009.90 1009.61 1009.22
993.46 994.17 995.38 996.29 997.14 998.17 998.93 999.70 1000.41 1000.97 1001.61 1002.46 1003.53 1004.41 1005.09 1005.78 1006.53 1007.38 1007.97 1008.05 1008.05 1008.09 1008.14 1008.46 1008.85 1009.09 1009.02 1009.17 1009.29 1009.41 1009.66 1010.09 1010.41 1010.58 1010.70 1010.93 1011.38 1012.02 1012.73 1013.05 1013.02 1012.78 1012.70 1012.46 1012.22 1012.09 1012.17 1012.58 1013.05 1013.38 1013.49 1013.49 1013.41 1013.53 1013.26 1012.82 1012.46 1011.97 1011.61 1011.38 1011.02 1010.93 1011.17 1011.29 1011.29 1011.17 1011.14 1011.05 1010.97 1010.66 1010.14 1009.66 1009.58 1009.49
993.73 994.73 995.66 996.26 996.90 997.73 998.66 999.53 1000.38 1001.05 1001.61 1002.41 1003.26 1003.97 1004.78 1005.66 1006.46 1007.14 1007.58 1007.70 1007.61 1007.66 1007.85 1008.29 1008.73 1008.73 1008.82 1009.02 1009.09 1009.26 1009.49 1009.85 1010.14 1010.38 1010.58 1010.85 1011.14 1011.73 1012.38 1012.73 1012.58 1012.26 1012.17 1011.97 1011.85 1012.02 1012.26 1012.49 1012.82 1012.97 1012.97 1012.97 1012.90 1012.90 1012.82 1012.38 1012.05 1011.78 1011.49 1011.14 1010.93 1010.85 1010.73 1010.61 1010.66 1010.82 1010.82 1010.66 1010.38 1010.29 1010.29 1010.17 1010.09 1009.66
993.49 994.73 995.46 996.09 997.02 998.09 999.02 999.38 999.93 1000.73 1001.53 1002.34 1003.09 1003.82 1004.61 1005.38 1006.09 1006.66 1007.02 1007.26 1007.29 1007.46 1007.73 1008.14 1008.41 1008.49 1008.66 1008.82 1008.97 1009.22 1009.46 1009.61 1009.90 1010.26 1010.49 1010.78 1010.97 1011.29 1011.61 1011.85 1012.14 1012.14 1011.97 1011.82 1011.85 1011.85 1011.97 1012.22 1012.38 1012.58 1012.66 1012.58 1012.46 1012.49 1012.38 1012.14 1011.82 1011.46 1011.29 1011.14 1010.93 1010.78 1010.58 1010.34 1010.26 1010.17 1009.97 1009.82 1009.82 1010.09 1010.14 1010.22 1010.14 1009.97
993.73 994.53 995.41 996.26 997.05 997.97 999.14 999.58 1000.09 1000.97 1001.85 1002.66 1003.38 1004.02 1004.58 1005.05 1005.66 1006.22 1006.53 1006.78 1007.02 1007.29 1007.66 1007.97 1008.26 1008.38 1008.53 1008.70 1008.90 1009.29 1009.41 1009.53 1009.73 1009.97 1010.26 1010.53 1010.90 1011.22 1011.41 1011.53 1011.90 1012.02 1011.85 1011.61 1011.70 1011.78 1011.93 1012.14 1012.17 1012.22 1012.29 1012.17 1012.09 1012.14 1011.97 1011.85 1011.70 1011.41 1011.09 1010.85 1010.70 1010.49 1010.38 1010.38 1010.38 1010.09 1009.90 1009.58 1009.61 1009.78 1009.73 1009.82 1009.78 1009.70
Wind_Speed
9 9 10 7 7 5 5 5 5 4 4 4 4 4 5 4 5 3 4 4 4 5 6 6 7 5 5 5 5 5 6 6 6 5 5 4 5 10 8 7 7 6 5 4 5 5 6 6 7 8 8 8 9 10 10 10 10 11 11 12 12 12 12 10 10 10 10 11 10 11 12 12 12 12
8 9 9 9 8 7 7 7 7 6 6 6 6 6 6 5 6 5 5 3 4 3 4 5 5 6 5 5 5 4 5 8 6 5 5 5 3 11 7 7 5 6 5 5 6 5 5 5 5 6 7 7 8 9 9 9 9 9 9 10 10 10 10 10 9 10 10 10 11 11 12 12 12 12
9 9 10 9 8 8 8 8 8 7 7 7 7 7 7 7 7 7 6 6 5 4 4 5 3 5 6 5 5 5 5 7 6 6 5 5 9 6 6 7 7 6 6 5 5 4 4 5 5 5 6 6 7 7 8 8 8 8 8 9 9 9 10 9 9 10 10 10 10 10 10 11 12 13
9 10 10 10 9 8 8 8 8 8 8 8 8 8 7 7 8 7 7 7 5 5 6 5 5 5 5 5 5 5 4 7 7 6 5 3 8 6 6 12 10 9 6 5 5 5 6 6 6 6 6 6 7 7 7 7 7 7 8 9 9 9 9 8 8 9 10 10 10 10 10 10 11 12
10 10 11 10 11 10 10 8 8 9 9 9 8 8 8 8 8 8 8 8 7 6 5 5 5 5 5 6 7 6 6 6 6 7 6 5 6 6 5 5 13 11 9 8 7 7 7 7 6 6 6 6 7 7 7 7 6 6 7 7 7 8 9 8 8 9 9 9 10 10 11 11 10 10
9 10 11 11 11 11 11 10 10 9 9 10 9 9 9 8 8 9 8 8 7 7 6 6 6 5 6 6 6 7 8 7 6 7 6 6 6 5 5 6 6 12 10 9 8 7 7 7 6 6 6 6 7 7 6 6 5 5 6 6 7 7 7 7 7 8 8 9 9 10 10 10 10 11
11 11 12 12 11 10 11 11 10 10 10 10 10 10 9 9 9 9 9 8 8 8 7 6 6 7 6 7 6 8 7 6 6 7 7 7 6 6 6 6 1 14 10 9 8 8 8 7 6 6 6 6 6 6 6 5 5 5 6 6 7 7 7 7 7 8 8 9 9 9 10 10 11 11
13 13 13 13 13 12 12 11 10 10 10 10 9 10 9 9 9 8 8 9 7 7 7 6 7 5 6 7 7 6 6 7 7 7 7 7 7 6 6 6 6 9 11 9 9 9 8 8 8 7 5 6 6 6 6 6 6 7 8 7 7 7 8 8 8 8 8 8 8 9 10 10 11 10
13 14 14 13 13 13 12 12 11 11 12 11 10 10 10 9 9 8 8 8 8 8 8 6 6 6 6 5 6 7 7 7 7 7 8 7 7 8 8 6 5 9 11 10 10 9 10 10 8 7 7 6 7 7 6 8 9 9 9 8 8 7 7 7 7 7 7 8 8 9 8 9 10 11
14 14 14 13 13 14 14 12 12 12 13 11 11 11 10 9 9 9 9 8 8 8 8 7 6 7 7 7 7 7 7 7 7 7 8 8 8 7 7 7 6 4 4 5 6 8 9 9 7 9 9 10 9 7 8 10 10 10 9 9 8 8 8 8 8 7 7 7 8 8 9 9 9 10
15 15 14 14 14 14 14 14 13 13 13 11 12 11 11 10 10 9 9 9 9 9 9 8 8 7 7 7 7 7 7 7 7 7 7 8 7 7 7 7 5 5 4 3 5 4 5 1 5 8 9 8 9 9 10 12 12 11 10 9 8 8 8 8 8 8 8 8 8 8 9 10 10 11
14 15 15 15 14 14 14 14 13 13 12 11 11 10 10 10 10 10 9 9 9 9 9 9 8 8 7 7 7 5 6 7 7 7 7 8 7 7 6 6 5 4 5 7 5 7 7 8 8 8 8 11 11 12 12 13 14 12 11 9 7 7 8 8 8 8 8 8 8 8 8 9 10 10
14 14 14 14 14 14 14 16 13 13 11 10 11 10 10 11 10 10 9 9 9 9 9 9 9 8 8 8 8 8 8 8 8 7 8 7 6 5 6 5 5 5 6 7 5 5 5 6 6 6 7 6 10 12 15 11 13 13 8 6 7 7 7 8 8 9 9 9 10 10 11 11 11 10
15 15 14 13 15 14 15 15 15 13 11 12 10 10 11 11 10 10 10 10 10 9 9 9 9 10 9 9 9 8 8 8 7 7 6 7 6 5 6 5 6 5 5 5 5 5 5 6 7 6 6 7 7 8 8 6 6 7 6 7 6 7 7 7 7 8 9 9 10 11 12 12 12 12
14 14 14 13 12 12 12 14 14 13 11 12 11 8 10 11 11 11 11 11 10 10 9 9 9 9 10 9 8 9 8 7 7 6 6 6 6 6 6 7 4 5 4 5 5 5 5 5 7 7 8 8 9 8 4 10 5 3 1 3 5 6 7 7 7 8 9 10 10 11 11 11 12 12
13 13 13 12 11 12 14 13 12 14 14 13 14 13 10 10 11 11 9 10 11 11 11 10 10 10 10 8 8 8 7 6 6 6 6 6 6 6 7 6 7 2 5 4 6 7 6 6 7 8 8 8 7 7 5 5 7 4 5 6 6 7 7 8 8 9 10 11 11 11 11 11 11 12
13 12 12 11 10 9 14 13 13 13 13 14 15 14 13 12 12 12 12 10 10 10 11 11 11 11 9 9 8 7 6 5 6 5 6 6 6 6 6 6 6 3 5 4 6 7 7 7 8 9 7 5 5 5 6 6 6 6 7 6 7 7 8 8 9 10 10 11 11 11 11 11 12 12
14 14 12 12 11 10 11 12 13 12 12 12 12 12 11 12 13 12 11 12 13 12 10 11 12 10 10 9 7 6 6 7 7 6 6 5 6 5 6 5 4 3 3 6 6 7 8 7 7 7 6 5 5 6 6 11 9 7 6 7 7 8 8 9 9 10 11 11 11 11 11 12 13 13
15 15 13 13 13 12 12 12 14 13 13 12 12 13 14 13 13 13 14 14 13 12 13 12 12 10 9 9 8 6 5 7 5 4 4 4 4 4 4 5 6 7 7 8 6 7 6 5 6 6 6 5 5 6 3 11 9 8 6 7 8 8 10 10 10 11 11 11 11 12 12 13 13 14
14 15 16 14 14 13 13 14 17 15 12 13 13 13 12 12 12 13 14 14 13 14 13 13 13 11 6 1 5 4 5 5 4 3 4 5 5 6 6 7 6 8 7 9 6 6 8 6 7 6 6 6 7 6 7 5 12 10 9 8 9 11 11 11 11 12 12 12 12 13 13 14 14 15
15 15 16 18 15 14 14 15 20 17 14 14 14 13 13 11 12 12 11 14 15 14 12 12 5 9 9 9 10 8 2 2 2 4 5 6 7 7 8 6 7 7 4 9 8 6 6 5 5 6 6 7 8 8 8 7 8 11 10 12 13 13 13 12 13 12 13 13 14 14 13 14 14 15
14 16 19 18 17 15 15 18 21 20 16 14 14 12 12 12 12 11 9 7 9 13 8 5 8 7 9 9 8 8 7 4 3 7 8 7 7 8 7 7 6 6 5 5 3 2 6 5 5 6 6 7 8 7 6 5 4 8 13 16 15 14 14 14 14 14 14 15 15 15 15 14 12 9
15 16 14 17 17 17 15 21 21 21 19 15 15 12 12 13 13 13 12 11 10 8 9 8 6 6 7 7 6 6 5 5 7 8 9 7 7 7 7 9 7 6 6 2 9 4 4 5 4 5 7 7 6 7 6 6 6 6 7 5 7 14 16 15 15 16 17 16 16 16 16 16 11 8
16 16 14 15 20 18 14 19 21 21 21 15 15 13 13 14 13 13 12 13 12 12 13 13 13 11 9 8 7 8 7 6 9 9 9 8 7 7 8 8 7 6 4 7 6 3 4 5 6 5 7 9 8 6 8 7 6 7 7 7 8 6 9 13 15 19 18 17 17 17 18 17 13 8
17 17 17 13 19 20 16 18 21 22 21 17 13 14 13 12 12 11 11 13 10 11 11 11 11 11 10 10 10 9 9 8 8 9 10 10 8 8 7 6 7 6 2 8 4 1 4 5 6 6 6 7 9 9 7 7 7 8 7 7 8 7 7 8 8 7 9 16 17 17 17 16 15 10
16 18 16 13 17 23 19 20 21 23 22 21 11 11 11 11 10 10 10 9 9 10 11 11 11 11 11 10 10 9 9 9 9 9 9 9 8 7 7 6 5 4 4 8 1 2 4 4 5 6 7 7 8 8 9 8 8 7 6 8 8 7 7 8 8 7 8 8 7 6 6 11 14 16
16 16 17 16 21 26 23 21 22 22 24 19 13 14 13 12 13 11 12 11 12 12 11 12 11 11 11 11 10 10 9 9 8 9 9 8 8 6 6 4 4 3 2 5 4 3 4 5 4 6 7 7 9 9 9 9 7 7 9 8 8 8 8 8 8 8 8 9 9 11 12 15 17 18
15 16 16 15 21 25 23 23 23 22 21 16 19 13 14 15 13 12 11 10 11 12 12 12 12 11 11 10 10 10 8 8 9 8 7 6 7 7 6 5 4 3 3 4 4 5 4 5 5 5 7 7 8 9 9 9 9 9 9 8 9 9 8 7 8 9 8 8 9 9 10 10 9 8
16 15 17 17 19 21 23 23 21 19 21 21 21 16 15 14 11 13 13 12 12 13 13 12 11 10 10 9 8 8 8 8 6 7 6 7 7 7 6 5 5 4 4 5 5 5 5 5 5 5 6 7 8 9 9 10 10 10 9 10 9 8 8 9 8 8 8 9 10 10 10 10 10 10
14 14 17 19 21 20 19 15 12 10 13 19 19 17 15 13 15 14 14 13 14 14 14 13 12 11 9 9 9 7 6 7 8 8 8 8 8 8 7 6 6 6 7 6 6 6 6 5 5 6 6 7 7 9 9 9 10 10 10 10 9 9 8 8 8 8 9 9 10 10 10 11 12 12
10 13 15 14 16 14 19 17 15 13 14 13 11 10 10 14 16 16 14 15 14 14 13 13 11 9 9 8 7 8 8 8 8 8 8 8 8 8 7 6 6 7 8 8 7 6 5 5 5 6 7 7 7 8 8 9 10 11 10 9 9 9 8 9 9 9 9 10 10 11 11 12 12 12
12 10 12 15 11 10 11 11 10 10 10 11 11 13 15 15 15 16 16 14 13 13 13 10 9 8 9 10 9 9 9 9 8 9 9 8 8 7 7 7 7 8 7 6 6 6 5 6 6 6 7 7 8 8 8 9 10 10 10 9 9 9 9 9 9 9 9 10 12 12 12 12 12 11
11 12 10 9 12 12 12 11 11 11 10 11 12 15 17 17 16 15 15 15 14 14 12 10 10 10 10 9 9 9 9 9 9 9 8 8 7 7 7 8 8 8 7 6 6 6 6 7 6 6 7 8 8 9 8 10 10 9 9 8 8 9 9 9 9 10 10 11 12 12 12 12 12 11
11 11 11 13 13 13 12 12 13 13 12 13 16 16 15 15 16 15 14 15 13 13 11 10 10 9 10 11 10 10 10 9 9 9 9 8 8 8 9 8 9 9 7 6 5 4 3 3 4 6 8 9 9 10 10 10 9 8 8 7 8 9 8 8 9 10 10 11 12 13 13 13 12 12
13 14 12 12 13 16 15 15 14 13 14 14 15 16 12 12 10 11 13 14 14 12 10 10 10 10 12 11 10 10 10 10 9 9 8 7 8 8 9 10 9 8 6 6 5 4 3 4 5 6 7 7 9 9 14 14 9 7 7 7 8 9 9 9 9 10 11 11 11 13 14 13 13 12
15 15 14 14 14 14 14 14 14 14 15 15 13 12 11 11 9 10 14 13 13 13 12 9 11 12 12 10 10 10 10 9 9 9 9 9 10 10 9 10 9 7 6 6 5 4 3 3 4 6 7 7 8 9 5 18 14 5 7 8 8 9 9 9 10 10 11 11 11 12 14 14 14 13
18 18 17 16 15 14 14 13 12 11 11 10 9 7 9 10 10 12 12 12 13 13 12 12 13 12 11 10 10 10 10 10 9 9 9 9 9 9 10 9 8 7 6 6 5 4 3 4 4 5 6 7 8 8 7 3 16 15 6 8 9 9 10 10 10 10 10 11 12 12 13 14 15 14
18 18 18 18 19 18 17 16 16 16 15 15 15 13 10 7 10 11 11 11 11 13 12 13 12 11 11 10 10 10 9 9 8 9 9 9 9 9 9 9 8 8 7 6 4 4 4 4 4 5 6 7 8 8 8 6 6 7 13 9 10 10 10 10 10 11 11 11 12 12 12 14 14 14
17 17 17 18 19 18 19 18 17 17 16 14 13 13 13 11 9 8 9 12 14 13 13 12 11 11 10 11 10 9 9 9 10 11 11 11 9 9 9 9 8 7 6 6 5 5 4 5 5 5 6 7 7 7 8 9 9 9 7 15 9 10 9 9 11 11 12 13 12 12 12 13 15 17
22 21 20 19 18 18 17 16 15 16 17 16 14 12 12 11 10 9 9 9 10 12 12 11 11 11 10 10 10 10 10 11 11 9 8 7 8 8 8 7 7 6 6 6 5 5 5 5 5 5 4 5 7 8 9 10 10 10 11 11 19 14 8 9 11 12 13 12 12 13 14 14 15 14
22 22 20 20 18 17 16 15 15 15 15 15 14 13 13 13 12 11 10 10 11 12 11 11 10 10 10 9 10 9 9 8 8 8 8 8 7 7 7 7 6 6 6 6 5 4 4 2 5 6 3 7 8 8 9 10 9 8 7 7 5 15 16 11 8 9 12 12 12 13 15 15 15 14
17 17 17 16 17 15 14 14 13 13 14 14 13 13 13 13 11 11 10 12 11 10 10 10 10 10 9 9 9 9 8 9 9 8 8 8 7 7 6 6 8 8 7 6 5 3 2 1 2 5 6 7 7 7 9 9 9 8 8 8 8 7 15 15 13 12 10 10 12 14 14 14 14 16
15 14 14 14 15 15 16 15 13 13 13 13 13 12 12 11 10 12 11 11 10 11 10 11 10 9 9 9 8 8 8 8 8 8 8 8 7 8 8 9 9 8 6 4 2 2 2 3 4 6 6 6 6 7 9 9 9 9 9 9 8 9 8 8 10 10 13 15 17 13 11 10 10 14
18 16 15 15 15 14 13 13 14 14 14 13 12 12 11 11 11 11 10 10 10 10 10 9 9 9 9 8 8 7 7 7 8 8 8 8 8 8 8 8 7 5 5 4 4 3 3 3 4 5 6 6 5 7 8 8 9 8 9 9 9 9 9 8 9 10 10 13 8 8 13 13 11 13
16 16 15 14 14 15 14 13 13 13 12 12 12 12 11 11 11 11 11 11 10 10 10 9 9 9 8 8 8 8 8 7 7 8 7 7 8 7 7 6 6 6 5 4 3 3 3 4 4 4 6 6 6 7 8 8 8 9 9 9 10 9 8 9 10 11 9 10 6 10 3 5 7 9
Wind_Direction
198 200 199 203 213 214 210 217 220 209 216 214 217 224 218 215 257 234 223 225 247 196 213 221 170 208 198 213 221 196 228 168 174 228 236 219 246 158 181 185 190 209 214 241 251 255 252 255 263 271 276 274 272 272 273 273 272 273 274 274 276 277 276 271 266 263 262 260 258 260 263 269 271 271
203 202 197 202 207 206 203 209 217 201 203 214 213 214 216 217 225 236 256 236 223 217 207 253 175 186 192 214 206 220 228 125 206 230 234 226 208 130 170 177 195 207 215 223 235 241 249 264 272 278 279 277 278 280 280 278 272 273 271 271 273 274 277 276 269 265 260 254 256 254 255 260 266 269
202 202 203 200 209 203 207 209 207 203 203 211 212 211 213 212 218 229 227 248 222 238 230 222 253 168 191 220 204 198 221 155 206 230 225 233 106 154 173 195 196 207 206 217 240 253 264 271 268 268 269 266 265 270 276 280 285 287 286 287 286 283 279 276 274 273 272 270 265 258 257 257 259 264
198 201 204 202 206 203 206 209 210 202 205 208 209 210 210 211 215 216 228 236 246 199 235 224 206 235 195 217 218 221 226 146 182 239 239 136 125 207 207 182 193 191 204 221 242 253 264 268 270 271 274 271 276 282 277 272 277 281 287 290 288 286 283 280 276 273 274 276 275 273 269 265 261 260
197 201 205 205 205 206 207 209 210 209 204 208 212 212 211 214 208 214 217 231 234 232 225 240 247 209 219 203 211 222 220 204 192 217 230 199 212 219 242 194 181 184 191 205 219 230 240 247 255 263 264 270 282 282 281 278 274 276 277 277 277 274 273 270 267 268 268 269 271 272 273 273 269 264
200 200 206 207 205 205 210 211 213 212 207 206 210 208 213 213 213 206 219 222 237 239 204 225 232 236 198 243 202 218 224 219 199 204 210 211 219 239 226 248 171 180 179 194 207 225 232 238 245 255 255 260 265 267 273 272 272 270 264 266 266 263 262 259 258 262 262 261 262 265 267 269 272 273
200 203 207 208 206 204 208 212 216 214 213 211 212 212 212 217 217 210 212 223 228 233 236 219 221 214 211 225 213 214 227 232 216 209 213 210 217 220 242 251 213 168 175 182 199 218 220 227 234 230 239 250 252 265 271 273 276 261 249 246 251 251 252 256 254 254 255 256 260 264 266 267 266 269
202 207 209 211 207 204 206 210 212 216 213 214 213 213 216 217 223 221 211 219 234 236 239 216 222 211 209 206 228 223 216 224 213 219 217 220 231 230 227 227 249 158 163 173 195 209 212 215 212 206 219 229 238 246 253 263 262 258 254 245 235 233 243 250 254 255 258 263 265 269 274 277 279 280
205 208 213 211 207 203 205 206 211 212 213 213 212 213 212 216 218 221 218 216 223 233 237 234 210 222 217 221 216 215 218 217 225 219 230 226 221 225 235 240 223 143 161 180 197 203 208 210 202 202 195 211 226 232 238 242 244 246 252 260 265 268 263 253 247 254 264 271 276 280 281 281 284 286
205 210 213 214 208 205 204 207 207 210 212 211 215 213 212 213 214 215 216 218 219 225 235 238 227 209 218 209 219 213 219 230 226 222 222 225 229 229 234 241 241 227 211 220 189 200 215 195 207 199 186 210 220 229 236 239 244 244 248 251 259 264 270 277 282 282 280 279 281 283 284 282 281 281
206 211 214 215 212 208 206 208 206 205 208 211 213 212 212 214 214 213 214 212 216 220 226 228 236 234 215 221 215 206 216 227 240 241 230 225 216 222 231 234 237 248 245 224 214 293 340 32 259 182 208 211 230 233 236 244 246 249 249 254 253 259 264 271 276 280 283 283 285 290 294 294 291 286
208 211 215 216 213 211 207 209 209 206 206 206 211 208 209 212 214 217 215 213 214 217 219 226 226 225 228 220 229 207 193 216 220 230 239 241 233 224 214 225 226 219 246 268 257 171 210 225 229 221 223 228 230 229 236 241 252 250 245 244 254 257 262 264 269 273 278 284 288 287 286 284 285 284
210 213 216 219 218 208 208 206 212 209 202 203 204 204 202 208 212 216 220 215 217 216 221 223 223 230 229 231 227 221 210 215 225 213 217 234 238 241 233 216 221 230 242 262 266 256 267 269 260 257 256 241 223 228 229 253 234 228 215 229 244 259 270 281 290 296 301 304 302 300 297 293 289 282
209 213 217 219 214 201 196 202 207 210 201 204 210 198 196 202 209 214 219 220 217 219 221 223 223 224 226 224 217 223 221 220 222 224 214 235 239 230 244 248 230 217 230 239 236 244 244 263 273 269 266 276 260 281 255 285 36 128 178 214 241 260 270 274 277 280 283 282 282 280 281 283 284 284
208 213 216 223 201 195 192 201 200 204 198 195 207 209 203 204 207 210 216 223 221 223 227 226 227 231 230 227 224 223 230 220 218 224 225 237 237 238 251 261 225 187 220 230 264 270 279 274 274 277 276 281 292 290 298 93 98 80 359 276 274 271 274 273 265 261 258 258 260 264 265 267 270 273
210 211 214 214 215 207 206 206 198 202 200 198 203 206 206 211 219 230 230 223 224 227 233 231 232 237 231 230 224 226 226 216 213 222 232 229 240 246 251 255 271 180 191 250 268 275 271 269 260 270 275 280 277 283 108 154 135 188 230 258 266 272 275 278 279 284 287 286 285 282 279 273 273 273
210 211 212 213 209 209 182 196 206 204 202 202 204 206 211 213 212 221 238 260 260 238 230 238 238 234 238 233 225 227 233 223 235 227 231 233 234 245 248 263 264 210 189 245 264 276 281 278 273 279 282 283 279 276 179 146 150 194 221 241 256 259 261 259 265 266 267 270 271 272 274 274 271 269
211 209 209 208 205 202 182 196 201 203 201 199 203 209 213 217 215 220 228 234 246 261 256 238 236 236 234 235 231 222 219 221 235 237 245 237 244 241 255 267 260 265 210 248 267 269 272 277 273 281 284 279 279 269 141 164 181 202 223 247 249 256 256 259 261 262 263 265 268 270 269 270 270 269
216 214 210 207 205 198 191 192 193 197 198 209 207 208 212 215 218 217 220 221 224 226 233 243 238 236 232 234 231 220 213 230 234 245 265 266 254 256 267 255 243 245 230 237 241 267 284 275 259 259 266 271 279 295 185 180 184 191 217 240 254 253 258 261 261 264 265 266 266 265 265 265 266 265
215 220 220 215 207 199 199 181 180 194 198 202 208 207 209 213 220 227 223 214 209 216 219 224 229 235 226 229 232 227 217 200 191 194 236 248 241 245 241 244 240 244 212 199 234 272 280 278 278 288 288 287 285 291 294 182 178 193 206 231 238 246 254 257 261 267 271 269 266 263 262 261 262 266
214 214 213 217 213 208 209 171 174 181 193 210 211 212 208 213 217 219 217 182 184 198 214 221 211 82 104 103 104 111 87 328 238 209 227 228 223 220 236 234 247 249 201 165 194 252 278 277 280 285 287 294 294 291 284 282 185 188 209 222 231 241 247 252 258 262 266 270 271 272 267 262 261 265
215 216 209 211 213 211 212 164 175 176 184 202 209 209 210 210 216 216 205 156 176 179 175 125 107 116 108 119 125 135 148 150 208 199 224 229 226 231 233 253 266 266 276 271 262 228 255 283 287 286 287 287 277 276 286 293 286 204 205 216 227 234 238 245 252 253 254 258 265 269 270 269 265 266
216 220 207 201 210 212 199 164 173 175 185 198 207 201 208 212 212 210 188 176 166 171 187 187 166 142 143 142 164 152 150 158 215 219 225 232 237 239 254 265 272 275 257 241 127 210 260 273 280 295 295 288 297 298 296 294 288 289 302 280 236 221 231 238 239 243 246 252 257 260 264 268 265 272
215 216 213 191 202 214 192 166 171 177 186 194 202 202 206 209 209 203 191 193 193 194 203 204 204 206 184 183 180 177 169 192 205 216 226 233 237 244 252 259 250 253 266 137 192 205 279 295 285 295 304 305 301 310 298 291 296 304 302 287 285 266 224 220 226 231 241 246 246 250 255 260 260 274
209 208 211 199 191 197 188 171 173 177 186 196 197 204 205 204 202 196 192 183 180 186 198 200 195 198 194 202 211 212 207 206 206 210 220 233 241 253 251 243 238 238 266 99 138 188 272 292 299 299 295 291 293 293 301 301 296 296 290 286 292 292 298 298 303 288 223 221 229 237 243 244 246 244
209 207 199 201 178 187 182 179 175 179 184 194 198 198 197 188 175 187 189 170 180 191 194 193 193 198 201 205 211 211 208 213 203 212 211 216 224 217 229 246 250 242 208 136 208 194 254 263 289 302 297 294 291 297 299 297 291 284 298 299 294 294 294 297 297 293 296 302 285 231 242 228 234 236
208 209 203 200 170 182 180 178 177 179 185 186 194 189 176 158 165 179 194 179 186 195 191 195 198 200 199 205 203 212 205 214 208 209 220 208 210 217 227 211 235 234 298 114 175 228 232 265 291 287 294 297 297 295 287 291 300 305 292 295 303 301 296 302 299 298 299 297 290 276 259 245 242 243
205 205 197 192 168 178 177 178 178 179 180 184 189 176 162 161 165 186 193 175 188 195 191 197 199 200 203 201 202 211 209 207 206 212 206 200 192 202 202 193 210 229 236 239 220 208 220 257 277 285 285 290 289 290 294 295 291 296 297 299 305 305 306 301 296 295 292 288 293 296 301 302 292 268
217 201 184 170 163 177 178 177 175 176 180 183 183 172 163 161 181 188 197 186 185 194 196 198 196 196 203 198 199 200 199 204 165 176 202 188 193 191 199 195 209 206 224 235 232 228 225 230 252 271 276 276 278 282 288 291 294 292 299 307 297 303 306 296 289 296 303 302 296 293 295 296 290 285
211 187 170 157 168 174 176 169 172 169 178 183 176 165 168 179 190 191 195 188 189 194 196 197 197 196 190 195 197 175 160 168 174 183 188 187 188 194 193 198 210 218 229 235 242 235 223 228 237 254 269 272 272 281 282 287 287 291 294 289 295 294 283 295 305 302 297 298 299 299 296 294 289 290
210 171 160 161 166 167 173 173 167 165 164 168 168 168 179 188 191 191 193 191 191 194 194 196 195 194 192 189 152 147 170 180 182 181 187 194 194 198 203 210 222 227 214 212 243 242 237 233 243 258 265 272 278 278 283 281 281 285 287 291 295 292 300 298 295 299 307 305 305 300 296 291 289 286
192 160 152 139 141 143 154 168 165 169 167 171 171 178 186 190 194 188 193 186 194 194 194 187 188 190 188 182 166 175 181 184 182 183 189 201 203 199 206 222 242 254 261 216 208 223 212 256 266 256 256 267 273 274 275 276 276 278 282 285 286 288 296 303 306 309 312 315 305 298 294 292 292 293
158 136 141 140 154 161 162 164 170 166 165 171 177 180 186 191 189 185 190 189 191 190 187 185 184 187 182 178 181 183 180 179 182 184 189 196 210 206 229 236 240 250 255 236 205 207 221 250 238 239 260 266 262 264 269 273 270 274 281 285 291 294 301 300 307 310 316 306 298 297 295 294 292 286
165 163 160 165 162 164 163 166 168 167 166 169 178 185 185 187 186 185 187 190 189 188 183 181 178 178 183 193 185 182 179 174 186 183 189 192 201 213 230 236 244 251 252 252 258 265 249 230 259 264 260 255 254 248 245 254 266 277 278 285 289 298 301 308 307 310 306 303 301 296 294 294 292 288
177 177 175 171 172 174 171 169 164 162 164 169 176 179 177 182 175 176 190 192 187 181 176 181 179 188 193 188 182 179 182 177 185 182 190 203 197 216 228 238 240 249 238 224 228 222 225 239 248 268 269 269 267 254 216 220 254 264 281 280 298 300 306 307 308 308 308 300 296 294 295 292 290 292
184 182 174 171 177 176 171 167 161 163 165 169 170 164 169 179 173 174 192 190 185 181 182 182 191 194 191 186 178 182 181 184 184 198 199 212 222 229 233 241 248 243 229 230 235 235 236 257 270 279 287 291 292 291 285 189 213 272 286 299 300 303 302 304 304 304 301 299 299 299 296 296 297 298
176 179 182 174 169 171 166 161 155 143 138 133 138 152 176 177 171 186 192 180 180 177 182 191 193 192 189 181 176 184 182 186 195 206 208 208 222 228 234 239 236 231 237 237 235 235 215 241 243 260 270 277 285 287 295 166 210 228 295 300 302 301 304 305 302 298 301 306 304 299 297 298 298 299
184 179 176 171 168 168 161 157 152 150 154 161 163 160 170 186 184 185 179 172 172 179 185 195 189 190 184 180 179 181 188 185 199 212 206 207 218 224 230 238 234 216 214 212 206 208 218 234 246 253 258 271 283 285 292 298 310 236 214 241 291 297 297 300 301 306 306 308 306 304 302 299 300 304
179 174 173 171 169 167 163 162 160 159 156 157 163 163 163 164 170 177 174 180 179 186 188 192 189 186 186 183 185 179 184 198 205 216 213 209 214 221 231 233 227 220 225 218 205 201 202 220 233 245 258 269 276 296 305 301 283 298 252 202 251 280 285 297 304 305 308 309 309 310 303 298 293 291
176 172 175 173 168 164 161 158 157 156 156 159 158 159 152 142 150 169 177 183 183 183 186 191 184 181 189 183 183 191 197 207 216 223 216 209 201 209 216 218 221 220 210 216 213 207 203 217 225 244 264 279 296 292 294 284 284 275 271 239 212 230 268 299 297 306 307 307 308 307 307 310 310 315
173 171 170 166 160 159 158 158 157 154 152 148 147 147 146 149 162 168 176 180 175 181 185 186 181 183 187 184 187 199 200 204 206 207 203 204 203 196 210 213 218 217 224 213 205 202 217 207 77 84 272 276 267 269 262 264 271 287 295 314 185 205 226 229 267 298 301 305 307 307 309 311 313 314
163 159 157 154 151 147 148 146 148 146 143 141 141 144 147 154 156 155 167 170 171 177 181 181 184 187 185 182 186 193 190 188 197 203 201 198 190 183 168 198 226 222 214 212 195 193 129 101 211 224 242 240 253 257 272 280 289 294 305 301 301 209 198 221 238 245 266 291 302 300 305 311 316 313
145 141 146 143 140 140 142 143 139 138 136 137 141 143 141 145 151 158 167 169 173 174 179 184 182 186 181 181 186 189 195 191 194 195 194 193 197 188 194 210 223 218 207 205 177 177 211 212 225 236 242 255 257 265 275 286 290 293 292 303 311 318 303 254 227 222 231 239 242 255 286 305 319 315
139 139 140 138 132 131 136 137 135 135 136 136 136 137 143 147 148 157 163 167 170 174 174 176 180 184 178 177 179 181 196 194 189 192 191 192 197 198 203 199 200 213 213 200 188 194 199 229 243 245 257 258 268 274 280 286 287 297 306 303 302 308 309 320 321 302 275 260 256 237 239 245 253 265
134 130 130 128 132 131 133 139 132 132 133 135 140 143 146 147 152 160 166 166 169 173 174 177 177 178 173 174 179 182 190 186 188 183 190 190 195 202 213 212 200 209 215 198 197 194 209 227 236 245 253 254 263 273 276 278 286 294 290 298 308 313 322 326 320 316 315 318 163 175 150 200 257 268